Regional Weather Roundup
Issued by NWS

Current Version | Previous Version | Text Only | Print | Product List | Glossary On
Versions: 1 2 3 4 5 6 7 8 9 10 11 12 13 14 15 16 17 18 19 20 21 22 23 24 25 26 27 28 29
000
ASUS44 KBMX 251810
RWRAL

ALABAMA REGIONAL WEATHER ROUNDUP
NATIONAL WEATHER SERVICE BIRMINGHAM AL
100 PM CDT SAT OCT 25 2014

NOTE: "FAIR" INDICATES FEW OR NO CLOUDS BELOW 12,000 FEET
WITH NO SIGNIFICANT WEATHER AND/OR OBSTRUCTIONS TO VISIBILITY.

THE REMARK "TC" DENOTES TEMPERATURE IN DEGREES CELSIUS.

ALZ001>011-014-016>018-020-251900-
NORTH ALABAMA

CITY           SKY/WX    TMP DP  RH WIND       PRES   REMARKS
MUSCLE SHOALS  SUNNY     77  57  50 W9        30.09F
6HR MIN TEMP:  44; 6HR MAX TEMP:  78;

HUNTSVILLE     SUNNY     74  54  49 VRB7      30.09F
6HR MIN TEMP:  44; 6HR MAX TEMP:  75;

DECATUR        SUNNY     73  55  53 W8        30.09F
6HR MIN TEMP:  41; 6HR MAX TEMP:  73;

HALEYVILLE     FAIR      73  58  59 NW7       30.12F
6HR MIN TEMP:  42; 6HR MAX TEMP:  73;

GADSDEN        SUNNY     73  48  40 W3        30.07F
6HR MIN TEMP:  39; 6HR MAX TEMP:  73;

$$

ALZ012-013-022-023-030>036-040>044-251900-
WEST CENTRAL ALABAMA

CITY           SKY/WX    TMP DP  RH WIND       PRES   REMARKS
TUSCALOOSA     SUNNY     75  56  51 W5        30.10F
6HR MIN TEMP:  45; 6HR MAX TEMP:  76;

$$

ALZ015-024>027-033>036-040>044-251900-
CENTRAL ALABAMA

CITY           SKY/WX    TMP DP  RH WIND       PRES   REMARKS
BIRMINGHAM     SUNNY     73  51  46 NW9       30.11F
6HR MIN TEMP:  43; 6HR MAX TEMP:  73;

MONTGOMERY     SUNNY     77  47  34 NW9       30.08F
6HR MIN TEMP:  44; 6HR MAX TEMP:  78;

SHELBY CO ARPT SUNNY     73  53  49 NW7       30.09F
6HR MIN TEMP:  47; 6HR MAX TEMP:  73;

MAXWELL AFB    SUNNY     75  47  37 NW9       30.07F
6HR MIN TEMP:  44; 6HR MAX TEMP:  75;

GREENVILLE     FAIR      76  47  35 N12       30.07F
6HR MIN TEMP:  45; 6HR MAX TEMP:  76;

$$

ALZ019-021-028-029-037-038-045>048-251900-
EAST CENTRAL ALABAMA

CITY           SKY/WX    TMP DP  RH WIND       PRES   REMARKS
ANNISTON       SUNNY     73  47  39 VRB5      30.08F
6HR MIN TEMP:  39; 6HR MAX TEMP:  73;

ALEXANDER CITY SUNNY     74  48  40 NW7       30.07F
6HR MIN TEMP:  40; 6HR MAX TEMP:  74;

AUBURN         SUNNY     72  48  43 NW9       30.09F
$$

ALZ051>064-251900-
SOUTHWEST ALABAMA

CITY           SKY/WX    TMP DP  RH WIND       PRES   REMARKS
MOBILE         SUNNY     75  54  47 N9        30.10F
6HR MIN TEMP:  44; 6HR MAX TEMP:  75;

BROOKLEY FIELD SUNNY     75  54  47 N9        30.10F
6HR MIN TEMP:  49; 6HR MAX TEMP:  76;

EVERGREEN      SUNNY     75  50  41 NW9       30.09F
6HR MIN TEMP:  45; 6HR MAX TEMP:  76;

$$

ALZ049-050-065>069-251900-
SOUTHEAST ALABAMA

CITY           SKY/WX    TMP DP  RH WIND       PRES   REMARKS
DOTHAN         SUNNY     75  41  29 NW6       30.07F
6HR MIN TEMP:  47; 6HR MAX TEMP:  77;

OZARK          SUNNY     75  44  32 NW8       30.04F
6HR MIN TEMP:  48; 6HR MAX TEMP:  75;

TROY           SUNNY     76  50  40 N13       30.07F
6HR MIN TEMP:  38; 6HR MAX TEMP:  76;

EUFAULA        FAIR      76  46  34 VRB6      30.03F
6HR MIN TEMP:  41; 6HR MAX TEMP:  76;

$$



USA.gov is the U.S. government's official web portal to all federal, state and local government web resources and services.